Weather History for Dayton, OH

Change the Weather History Date:

Friday, January 24, 2014

  Actual Average Record
Temperature  
Mean Temperature 9 °F 28 °F  
Max Temperature 21 °F 35 °F 71 °F (1943)
Min Temperature -4 °F 20 °F -19 °F (1963)
Degree Days  
Heating Degree Days 56 37  
Month to date heating degree days 1010 905  
Since 1 July heating degree days 3129 3064  
Cooling Degree Days 0 0  
Month to date cooling degree days 0 0  
Year to date cooling degree days 0 0  
Moisture  
Dew Point -3 °F    
Average Humidity 68    
Maximum Humidity 87    
Minimum Humidity 49    
Precipitation  
Precipitation T in 0.08 in 1.72 in (1937)
Month to date precipitation 2.60 2.15  
Year to date precipitation 2.60 2.15  
Snow  
Snow T in 0.20 in 4.90 in (1941)
Month to date snowfall 17.3 6.1  
Since 1 July snowfall 31.9 11.6  
Snow Depth 3.00 in    
Sea Level Pressure  
Sea Level Pressure 30.33 in    
Wind  
Wind Speed 17 mph (SSW)    
Max Wind Speed 35 mph    
Max Gust Speed 44 mph    
Visibility 9 miles    
Events Snow    
T = Trace of Precipitation, MM = Missing Value Source: NWS Daily Summary

Daily Weather History Graph

Daily Weather History Graph

Search for Another Location

Airport:

Trip Planner

Search our weather history database for the weather conditions in past years. The results will help you decide how hot, cold, wet, or windy it might be!

Date:

Astronomy

Jan. 24, 2014 Rise Set
Actual Time 7:51 AM EST 5:46 PM EST
Civil Twilight 7:22 AM EST 6:15 PM EST
Nautical Twilight 6:49 AM EST 6:48 PM EST
Astronomical Twilight 6:17 AM EST 7:20 PM EST
Moon 1:18 AM EST (1/24) 12:04 PM EST (1/24)
Length of Visible Light 10h 53m
Length of Day
9h 55m
Last Quarter, 45% of the Moon is Illuminated
Jan 24
Last Quarter
Jan 30
New
Feb 6
First Quarter
Feb 14
Full
Feb 22
Last Quarter

Hourly Weather History & Observations

Time (EST) Temp. Windchill Dew Point Humidity Pressure Visibility Wind Dir Wind Speed Gust Speed Precip Events Conditions
12:56 AM -2.9 °F -18.8 °F -8.0 °F 79% 30.62 in 10.0 mi SW 9.2 mph - N/A   Partly Cloudy
1:18 AM -2.2 °F -18.0 °F -7.6 °F 78% 30.53 in 7.0 mi WSW 9.2 mph - N/A   Scattered Clouds
1:56 AM -2.9 °F -18.8 °F -8.0 °F 79% 30.61 in 6.0 mi WSW 9.2 mph - N/A   Haze
2:56 AM -0.9 °F -15.3 °F -6.0 °F 79% 30.62 in 10.0 mi WSW 8.1 mph - N/A   Mostly Cloudy
3:56 AM -2.0 °F -16.6 °F -7.1 °F 79% 30.62 in 10.0 mi SW 8.1 mph - N/A   Partly Cloudy
4:56 AM -2.9 °F -17.7 °F -7.1 °F 82% 30.60 in 10.0 mi SSW 8.1 mph - N/A   Clear
5:56 AM -2.9 °F -18.8 °F -8.0 °F 79% 30.58 in 10.0 mi SW 9.2 mph - N/A   Clear
6:56 AM -2.9 °F -18.8 °F -8.0 °F 79% 30.58 in 10.0 mi SW 9.2 mph - N/A   Clear
7:56 AM -4.0 °F -21.2 °F -8.0 °F 83% 30.56 in 10.0 mi SSW 10.4 mph - N/A   Clear
8:56 AM -2.9 °F -20.8 °F -7.1 °F 82% 30.54 in 10.0 mi SW 11.5 mph - N/A   Partly Cloudy
9:56 AM -0.0 °F -18.0 °F -6.0 °F 76% 30.52 in 10.0 mi SSW 12.7 mph - N/A   Scattered Clouds
10:56 AM 3.0 °F -15.5 °F -6.0 °F 66% 30.47 in 10.0 mi SSW 15.0 mph - N/A   Scattered Clouds
11:56 AM 7.0 °F -11.6 °F -6.0 °F 55% 30.43 in 10.0 mi SSW 17.3 mph 28.8 mph N/A   Mostly Cloudy
12:56 PM 10.0 °F -10.4 °F -5.1 °F 51% 30.38 in 10.0 mi SSW 24.2 mph 31.1 mph N/A   Mostly Cloudy
1:56 PM 10.9 °F -8.8 °F -4.0 °F 51% 30.30 in 10.0 mi SSW 23.0 mph 28.8 mph N/A   Overcast
2:56 PM 12.9 °F -4.9 °F -2.9 °F 49% 30.22 in 10.0 mi SSW 19.6 mph 29.9 mph N/A   Overcast
3:56 PM 14.0 °F -4.3 °F -0.9 °F 52% 30.16 in 10.0 mi South 21.9 mph 32.2 mph N/A   Overcast
4:56 PM 15.1 °F -3.7 °F -0.0 °F 51% 30.10 in 10.0 mi South 24.2 mph 34.5 mph N/A   Overcast
5:56 PM 16.0 °F -2.8 °F 1.0 °F 52% 30.04 in 10.0 mi South 25.3 mph 33.4 mph N/A   Overcast
6:56 PM 17.1 °F -1.4 °F 1.9 °F 52% 30.01 in 8.0 mi SSW 25.3 mph 38.0 mph N/A   Overcast
7:56 PM 18.0 °F 0.9 °F 3.0 °F 52% 29.98 in 10.0 mi SSW 21.9 mph 31.1 mph N/A   Overcast
8:56 PM 19.0 °F 2.7 °F 3.0 °F 50% 29.94 in 10.0 mi SSW 20.7 mph 29.9 mph N/A   Overcast
9:56 PM 19.9 °F 4.8 °F 3.9 °F 50% 29.91 in 10.0 mi SW 18.4 mph 32.2 mph N/A   Overcast
10:56 PM 19.9 °F 3.9 °F 3.9 °F 50% 29.88 in 10.0 mi SW 20.7 mph 29.9 mph N/A   Overcast
11:56 PM 19.9 °F 2.2 °F 10.0 °F 65% 29.83 in 3.0 mi SW 26.5 mph 43.7 mph 0.00 in Snow Light Snow